Regional Weather Roundup
Issued by NWS

Home | Current Version | Previous Version | Text Only | Print | Product List | Glossary Off
Versions: 1 2 3 4 5 6 7 8 9 10 11 12 13 14 15 16 17 18 19 20 21 22 23 24 25 26 27 28 29 30 31 32 33 34 35 36 37 38 39 40 41 42 43 44 45 46 47 48 49 50

000
ASUS45 KBOU 240507
RWRCO

WEATHER ROUNDUP FOR COLORADO
NATIONAL WEATHER SERVICE DENVER/BOULDER CO
1100 PM MDT TUE MAY 23 2017

NOTE: "FAIR" INDICATES FEW OR NO CLOUDS BELOW 12000 FEET WITH NO
SIGNIFICANT WEATHER AND/OR OBSTRUCTIONS TO VISIBILITY.

COZ001>005-013-030-031-240600-
...NORTHWEST COLORADO...

CITY           SKY/WX    TMP DP  RH WIND       PRES   REMARKS
CRAIG          FAIR      44  35  70 E5        30.14S
HAYDEN         FAIR      45  30  57 CALM      30.15F
MEEKER         FAIR      47  33  58 CALM      30.16F
RABBIT EARS PA FAIR      32  28  86 W5        30.31F WCI  27
STEAMBOAT SPGS FAIR      42  33  70 SE3       30.17F
WALDEN           N/A     39  28  65 S8        30.21F
$$

COZ006>008-011-240600-
...WEST CENTRAL VALLEYS...

CITY           SKY/WX    TMP DP  RH WIND       PRES   REMARKS
GRAND JUNCTION FAIR      57  29  34 E5        30.07S
MONTROSE       FAIR      53  29  39 SE8       30.17R
EAGLE          FAIR      45  30  55 CALM      30.22S
RIFLE          FAIR      52  30  43 E7        30.14R
DELTA          FAIR      58  27  31 E8        30.12S
NUCLA          FAIR      54  30  40 E13       30.18S
$$

COZ017>023-064>068-240600-
...SOUTHWEST COLORADO...

CITY           SKY/WX    TMP DP  RH WIND       PRES   REMARKS
DURANGO        FAIR      55  15  20 NW10      30.14S
CORTEZ         FAIR      46  34  62 NE5       30.14R
PAGOSA SPRINGS FAIR      48  12  24 CALM      30.20S
TELLURIDE      FAIR      44  20  39 CALM      30.33S
WOLF CREEK PAS FAIR      32  10  40 NW8       30.42S WCI  25
$$

COZ009-010-012-014-032>034-037-058>063-240600-
...CENTRAL COLORADO...

CITY           SKY/WX    TMP DP  RH WIND       PRES   REMARKS
ASPEN          FAIR      38  28  67 S7        30.24S
BUENA VISTA    FAIR      43  24  48 NW6       30.21S
COPPER MTN     FAIR      34  23  64 NW15      30.37F WCI  24
BERTHOUD PASS  FAIR      23  12  63 NW31G38   30.32F WCI   5
COTTONWOOD PAS FAIR      43  14  31 NW10G17   30.28S
GUNNISON       FAIR      43  21  41 NW8       30.23R
KREMMLING      FAIR      41  34  75 SE5       30.22F
LEADVILLE      FAIR      33  21  61 N8        30.28S WCI  26
MONARCH PASS   FAIR      32  12  43 W10       30.48S WCI  24
SALIDA         FAIR      50  24  35 E3        30.27S
SUNLIGHT       FAIR      36  23  60 CALM      30.39F
WILKERSON PASS FAIR      32  21  64 NW12G23   30.33F WCI  23
$$

COZ069>075-240600-
...SAN LUIS VALLEY/SANGRE DE CRISTO MOUNTAINS...

CITY           SKY/WX    TMP DP  RH WIND       PRES   REMARKS
ALAMOSA        FAIR      51  21  30 NW9       30.17R
DEL NORTE      FAIR      45  17  31 W7        30.21S
LA VETA PASS   FAIR      34  23  64 W14       30.38S WCI  24
SAGUACHE       FAIR      46  21  36 NW9       30.21R
$$

COZ035-036-038>040-240600-
...NORTHERN COLORADO FRONT RANGE...

CITY           SKY/WX    TMP DP  RH WIND       PRES   REMARKS
DENVER INTL AP FAIR      50  32  50 E3        30.10F
DMNS CITY PARK   N/A     50  33  51 SE6       30.10F
AURORA         PTCLDY    45  33  65 SE5       30.11F
FRONT RANGE AP NOT AVBL
ERIE MUNI ARPT FAIR      44  40  85 SW5       30.09F
BOULDER MUN AP FAIR      50  34  53 SW3       30.10F
CENTENNIAL     FAIR      49  34  56 S3        30.12F
BROOMFIELD     NOT AVBL
FORT COLLINS   FAIR      51  35  54 SE5       30.09F
LONGMONT       FAIR      44  38  80 CALM      30.12F
$$

COZ041-046-047-076>085-087-088-240600-
...PIKES PEAK/PALMER DIVIDE AND SOUTHERN FOOTHILLS...

CITY           SKY/WX    TMP DP  RH WIND       PRES   REMARKS
COLO. SPRINGS  FAIR      46  33  60 N7        30.14S
A. F. ACADEMY  FAIR      41  33  73 N5        30.14F
SCHRIEVER AFB  FAIR      45  33  62 N9        30.14S
CHEYENNE MTN   MOCLDY    47  30  50 W3        30.11S
ELLICOTT       FAIR     N/A N/A N/A N8        30.12S
FALCON         FAIR      42  32  67 NW5       30.16F
FORT CARSON    FAIR      52  31  43 W3        30.12S
LIMON          FAIR      33  32  96 N3        30.10S
MONUMENT HILL  FAIR      34  32  93 SW3       30.17F
CANON CITY     NOT AVBL
WALSENBURG     FAIR      43  39  87 SW3       30.14S
TRINIDAD       FAIR      43  36  76 W9        30.13F
$$

COZ042>045-048>051-090-091-240600-
...NORTHEAST COLORADO...

CITY           SKY/WX    TMP DP  RH WIND       PRES   REMARKS
GREELEY ARPT   FAIR      49  37  63 SW5       30.09S
AKRON          FAIR      46  35  65 NE13      30.04F
BURLINGTON     FAIR      40  36  86 CALM      30.04S
WRAY           FAIR      37  34  87 W5        30.04S
YUMA           FAIR      39  34  81 W6        30.04F
STERLING       FAIR      41  37  87 CALM      30.04S
HOLYOKE        NOT AVBL
FORT MORGAN    FAIR      44  33  64 W3        30.07S
$$

COZ086-089-092>099-240600-
...SOUTHEAST COLORADO...

CITY           SKY/WX    TMP DP  RH WIND       PRES   REMARKS
PUEBLO         FAIR      51  39  63 E3        30.09R
LA JUNTA       FAIR      51  38  60 SW10      30.07S
LAMAR          FAIR      43  37  79 SW3       30.03S
SPRINGFIELD      N/A     41  36  82 NW8       30.06F
$$



USA.gov is the U.S. government's official web portal to all federal, state and local government web resources and services.